Location: North Fort Myers
(26.6673°N, 81.8801°W)
Time: 04:46:35
(UTC+00:00)

Envisat - Pass Details

Date: 21 August 2022
Orbit: 764 x 765 km, 98.2° (Epoch: 02 October)

Event Time Altitude Azimuth Distance (km) Brightness Sun altitude
Rises 09:08:30 0° 24° (NNE) 3,229 7.0 -24.5°
Reaches altitude 10° 09:10:59 10° 33° (NNE) 2,300 6.3 -24.0°
Maximum altitude 09:15:37 36° 99° (E) 1,205 4.4 -23.1°
Drops below altitude 10° 09:20:13 10° 165° (SSE) 2,289 5.3 -22.2°
Enters shadow 09:21:34 - 170° (S) 2,787 5.7 -21.9°
